This demonstration page uses our WeatherBlox Daily Observations layout. Learn more.

Left ArrowRight Arrow

Hourly Observations for November 13, 2021

Temp ( °F °C ) Dew Point ( °F °C ) Humidity (%) Winds ( mph kmh ) Pressure ( in mb ) Visibility ( mi km ) Precip ( " mm )
12:53 am 00:53 Cloudy 49 9.4 40 4.4 71 71 WSW 14 22 29.82 1010 10 16 0.00 0.00
1:53 am 01:53 Cloudy 48 8.9 39 3.9 71 71 WSW 9 15 29.83 1010 10 16 0.00 0.00
2:53 am 02:53 Cloudy 49 9.4 39 3.9 69 69 WNW 16 26 29.84 1011 10 16 0.00 0.00
3:53 am 03:53 Cloudy 46 7.8 37 2.8 71 71 NNW 8 13 29.87 1012 10 16 0.00 0.00
4:53 am 04:53 Cloudy 47 8.3 36 2.2 66 66 W 21 33 29.87 1012 10 16 0.00 0.00
5:53 am 05:53 Mostly Cloudy 46 7.8 33 0.6 61 61 W 22 35 29.90 1013 10 16 0.00 0.00
6:53 am 06:53 Mostly Clear 43 6.1 29 -1.7 58 58 W 18 30 29.93 1014 10 16 0.00 0.00
7:53 am 07:53 Sunny 41 5 22 -5.6 47 47 WNW 22 35 29.99 1016 10 16 0.00 0.00
8:53 am 08:53 Mostly Cloudy 41 5 27 -2.8 57 57 WNW 21 33 30.04 1017 10 16 0.00 0.00
9:53 am 09:53 Sunny 41 5 31 -0.6 67 67 WNW 15 24 30.06 1018 10 16 0.00 0.00
10:53 am 10:53 Sunny 46 7.8 30 -1.1 54 54 WNW 16 26 30.07 1018 10 16 0.00 0.00
11:53 am 11:53 Sunny 52 11.1 23 -5 32 32 NW 10 17 30.05 1018 10 16 0.00 0.00
12:53 pm 12:53 Sunny 53 11.7 18 -7.8 25 25 WNW 21 33 30.05 1018 10 16 0.00 0.00
1:53 pm 13:53 Sunny 53 11.7 18 -7.8 25 25 NW 24 39 30.05 1018 10 16 0.00 0.00
2:53 pm 14:53 Sunny 50 10 18 -7.8 28 28 NW 15 24 30.08 1019 10 16 0.00 0.00
3:53 pm 15:53 Sunny 47 8.3 19 -7.2 33 33 NNW 5 7 30.10 1019 10 16 0.00 0.00
4:53 pm 16:53 Clear 37 2.8 20 -6.7 50 50 SSW 8 13 30.13 1020 10 16 0.00 0.00
5:53 pm 17:53 Clear 36 2.2 20 -6.7 52 52 SW 13 20 30.14 1021 10 16 0.00 0.00
6:53 pm 18:53 Clear 35 1.7 18 -7.8 50 50 SSW 7 11 30.16 1021 10 16 0.00 0.00
7:53 pm 19:53 Clear 35 1.7 19 -7.2 52 52 WSW 6 9 30.15 1021 10 16 0.00 0.00
8:53 pm 20:53 Clear 33 0.6 20 -6.7 58 58 SW 7 11 30.15 1021 10 16 0.00 0.00
9:53 pm 21:53 Clear 39 3.9 21 -6.1 48 48 SW 10 17 30.13 1020 10 16 0.00 0.00
10:53 pm 22:53 Clear 37 2.8 22 -5.6 54 54 SW 10 17 30.11 1020 10 16 0.00 0.00
11:53 pm 23:53 Mostly Clear 35 1.7 21 -6.1 57 57 WNW 3 6 30.06 1018 10 16 0.00 0.00

Powered by AerisWeather